Preview of NWS' New Version of Forecast
This preview is not operational and should not be used for support decisions.

Regional Weather Roundup (RWR)

Issued by National Weather Service (NWS)

                            
000
ASUS43 KLSX 211757
RWRMO 

WEATHER SUMMARY FOR MISSOURI
NATIONAL WEATHER SERVICE SPRINGFIELD MO
100 PM CDT SAT SEP 21 2019

NOTE: "FAIR" INDICATES FEW OR NO CLOUDS BELOW 12,000 FEET WITH NO
       SIGNIFICANT WEATHER AND/OR OBSTRUCTIONS TO VISIBILITY.
       CURRENT SKY AND/OR WEATHER CONDITIONS ARE NOT AVAILABLE FOR
       CHILLICOTHE AND FARMINGTON.

MOZ001>031-035>038-043-044-053-054-211900-
...NORTHERN AND WESTERN MISSOURI...
  
CITY           SKY/WX    TMP DP  RH WIND       PRES   REMARKS
KANSAS CTY INT LGT RAIN  75  73  93 S16G25    29.96F FOG              
6HR MIN TEMP:  73; 6HR MAX TEMP:  76; 6HR PCP:  0.23;                

LEE'S SUMMIT   LGT RAIN  76  72  87 S14       29.99F FOG              
6HR MIN TEMP:  74; 6HR MAX TEMP:  80; 6HR PCP:  0.02;                

ST JOSEPH      CLOUDY    76  72  87 S17G30    29.91F                  
6HR MIN TEMP:  73; 6HR MAX TEMP:  76; 6HR PCP:  0.25;                

CHILLICOTHE      N/A     77  72  84 S12G20    29.99S                  
6HR MIN TEMP:  72; 6HR MAX TEMP:  77;                                

     
$$
MOZ066>068-077>081-088>096-101>105-211900-
...SOUTHWEST MISSOURI...
  
CITY           SKY/WX    TMP DP  RH WIND       PRES   REMARKS
SPRINGFIELD    MOSUNNY   82  68  62 S17G29    30.09F                  
6HR MIN TEMP:  71; 6HR MAX TEMP:  83;                                

JOPLIN         RAIN      74  71  91 S9        30.07F FOG              
6HR MIN TEMP:  74; 6HR MAX TEMP:  83; 6HR PCP:  0.05;                

BRANSON        PTSUNNY   79  66  65 S8        30.15F                  
               
$$
MOZ032>034-039>042-045>050-055>058-069>072-211900-
...CENTRAL MISSOURI...  
  
CITY           SKY/WX    TMP DP  RH WIND       PRES   REMARKS
COLUMBIA       NOT AVBL                                               
JEFFERSON CITY LGT RAIN  82  68  62 SW22G30   30.06S                  
6HR MIN TEMP:  76; 6HR MAX TEMP:  83; 6HR PCP: TRACE;                

ROLLA          PTSUNNY   82  67  60 S16G26    30.11S                  
6HR MIN TEMP:  72; 6HR MAX TEMP:  85;                                

SEDALIA        CLOUDY    78  70  76 S17G28    30.04S                  
6HR MIN TEMP:  72; 6HR MAX TEMP:  78;                                

               
$$
MOZ051-052-059>065-211900-
...EAST CENTRAL MISSOURI...
  
CITY           SKY/WX    TMP DP  RH WIND       PRES   REMARKS
ST LOUIS INTL  LGT RAIN  76  69  79 S10G20    30.11F                  
6HR MIN TEMP:  75; 6HR MAX TEMP:  79; 6HR PCP:  0.02;                

                   
$$
MOZ072>076-082>087-097>100-106>115-211900-
...SOUTH CENTRAL AND SOUTHEAST MISSOURI...
  
CITY           SKY/WX    TMP DP  RH WIND       PRES   REMARKS
CAPE GIRARDEAU FAIR      86  63  45 S16G24    30.16F                  
6HR MIN TEMP:  70; 6HR MAX TEMP:  86;                                

POPLAR BLUFF   FAIR      81  69  67 SW14G21   30.17F                  
6HR MIN TEMP:  70; 6HR MAX TEMP:  82;                                

WEST PLAINS    PTSUNNY   82  69  64 S13G23    30.17S                  
6HR MIN TEMP:  71; 6HR MAX TEMP:  83; 6HR PCP: TRACE;                

                                       
$$